Weather in Ostretsovo

Russia / Ivanovo Oblast     57°12′13″N   41°33′25″E
temp.,
°C
wind,
m/s
gust,
m/s
humid.,
%
clouds,
%
prec.,
mm/h
press.,
hPa
HPBL,
m
5 may, wed
wed500:00+2wsw4997100 0.1 999672
03:00+2wsw51092100 0.4 1000691
06:00+2wsw51097100 0.4 1001573
09:00+2w61197100 0.6 1003622
12:00+4w71083100 0.1 10051020
15:00+6wnw71175100 0.3 10071366
18:00+7wnw487256 0.1 1008995
21:00+4e1180100 0.1 100812
6 may, thu
thu600:00+4ese3590100 0.4 1009164
03:00+5sse249855 0.4 100992
06:00+7sse249885 0.0 1009153
09:00+12s6880100 0.0 1008630
12:00+16ssw81364100 0.0 10071461
15:00+16ssw91562100 0.4 10061970
18:00+13ssw8186899 0.5 10051646
21:00+12ssw91672100 0.6 10061585
7 may, fri
fri700:00+9ssw71392100 0.9 1006820
03:00+6sw4992100 1.4 1008296
06:00+6sw51093100 0.0 1010475
09:00+10sw686452 0.0 10111110
12:00+12wsw7104891 0.0 10122247
15:00+14wsw6940100 0.0 10122434
18:00+13ssw485168 0.0 1013423
21:00+8ssw34705 0.0 101452
8 may, sat
sat800:00+7s41077100 0.0 1015170
03:00+6sse41173100 0.0 1014220
06:00+7sse5147299 0.0 1014346
09:00+12sse8125688 0.0 10121026
12:00+15sse81155100 0.0 10091712
15:00+13sse91568100 0.3 10071729
18:00+10sse71589100 1.8 1005819
21:00+11sse71394100 2.5 1003697
9 may, sun
sun900:00+7wnw71394100 5.3 1003628
03:00+6sw5991100 9.6 1005669
06:00+5ssw51091100 0.1 1007800
09:00+7ssw71078100 0.1 10081165
12:00+8wsw7973100 0.1 10111259
15:00+7wnw6973100 0.3 10141166
18:00+7nw51172100 0.1 10161221
21:00+5nw3778100 0.1 1019175